Location: Unspecified
(0.0000°N, 0.0000°E)
Time: 04:44:07
(UTC+02:00)

HO-68 - Visible Passes

Search period start: 23 May 2015 00:00
Search period end: 02 June 2015 00:00
Orbit: 1193 x 1204 km, 100.2° (Epoch: 22 May)

Date Brightness Start Highest point End Pass type
(mag) Time Alt. Az. Time Alt. Az. Time Alt. Az.
23 May ? 22:19:17 55° NNE 22:19:17 55° NNE 22:24:57 10° N visible
24 May ? 22:02:04 44° NE 22:02:04 44° NE 22:07:48 10° N visible
24 May ? 23:51:31 14° WNW 23:51:31 14° WNW 23:53:04 10° WNW visible
25 May ? 21:44:51 32° ENE 21:44:51 32° ENE 21:50:25 10° NNE visible
25 May ? 23:34:18 22° WNW 23:34:18 22° WNW 23:37:23 10° NW visible
26 May ? 21:27:38 23° ENE 21:27:38 23° ENE 21:32:41 10° NNE visible
26 May ? 23:17:05 31° WNW 23:17:05 31° WNW 23:21:15 10° NW visible
27 May ? 21:10:24 15° ENE 21:10:24 15° ENE 21:14:24 10° NE visible
27 May ? 22:59:52 43° WNW 22:59:52 43° WNW 23:04:50 10° NNW visible
28 May ? 22:42:38 57° NW 22:42:38 57° NW 22:48:11 10° NNW visible
29 May ? 22:25:25 62° NNE 22:25:25 62° NNE 22:31:19 10° N visible
30 May ? 22:08:12 51° NE 22:08:12 51° NE 22:14:15 10° N visible
30 May ? 23:57:39 12° WNW 23:57:39 12° WNW 23:58:40 10° WNW visible
31 May ? 21:50:59 38° ENE 21:50:59 38° ENE 21:56:57 10° N visible
31 May ? 23:40:26 19° WNW 23:40:26 19° WNW 23:43:16 10° NW visible
01 Jun ? 21:33:46 27° ENE 21:33:46 27° ENE 21:39:23 10° NNE visible
01 Jun ? 23:23:13 28° WNW 23:23:13 28° WNW 23:27:18 10° NW visible
